Weather History for Iron Mountain, MI

Change the Weather History Date:

Sunday, January 27, 2013

  Actual Average Record
Temperature  
Mean Temperature 24 °F -  
Max Temperature 30 °F 22 °F 46 °F (2006)
Min Temperature 19 °F 0 °F -25 °F (1950)
Degree Days  
Heating Degree Days 40    
Moisture  
Dew Point 21 °F    
Average Humidity 80    
Maximum Humidity 93    
Minimum Humidity 58    
Precipitation  
Precipitation 0.02 in - - ()
Sea Level Pressure  
Sea Level Pressure 30.09 in    
Wind  
Wind Speed 8 mph (SSE)    
Max Wind Speed 13 mph    
Max Gust Speed -    
Visibility 5 miles    
Events Snow    
Averages and records for this station are not official NWS values.
T = Trace of Precipitation, MM = Missing Value Source: NWS Daily Summary

Daily Weather History Graph

Daily Weather History Graph

Search for Another Location

Airport:

Trip Planner

Search our weather history database for the weather conditions in past years. The results will help you decide how hot, cold, wet, or windy it might be!

Date:

Astronomy

Jan. 27, 2013 Rise Set
Actual Time 7:19 AM CST 4:51 PM CST
Civil Twilight 6:47 AM CST 5:23 PM CST
Nautical Twilight 6:11 AM CST 5:59 PM CST
Astronomical Twilight 5:36 AM CST 6:34 PM CST
Moon 5:51 PM CST (1/27) 7:07 AM CST (1/27)
Length of Visible Light 10h 36m
Length of Day
9h 31m
Full, 100% of the Moon is Illuminated
Jan 27
Full
Feb 3
Last Quarter
Feb 10
New
Feb 17
First Quarter
Feb 25
Full

Hourly Weather History & Observations

Time (CST) Temp. Windchill Dew Point Humidity Pressure Visibility Wind Dir Wind Speed Gust Speed Precip Events Conditions
12:54 AM 19.9 °F 9.3 °F 10.9 °F 68% 30.29 in 10.0 mi South 9.2 mph - N/A   Overcast
1:54 AM 19.9 °F 8.6 °F 10.0 °F 65% 30.29 in 10.0 mi South 10.4 mph - N/A   Overcast
2:54 AM 19.9 °F 7.3 °F 10.9 °F 68% 30.29 in 10.0 mi South 12.7 mph - N/A   Overcast
3:54 AM 19.9 °F 10.1 °F 14.0 °F 78% 30.27 in 10.0 mi South 8.1 mph - N/A   Overcast
4:54 AM 19.9 °F 9.3 °F 14.0 °F 78% 30.25 in 10.0 mi South 9.2 mph - N/A   Overcast
5:54 AM 21.0 °F 9.3 °F 12.9 °F 71% 30.24 in 10.0 mi South 11.5 mph - N/A   Overcast
6:54 AM 21.0 °F 9.9 °F 12.9 °F 71% 30.24 in 10.0 mi South 10.4 mph - N/A   Overcast
7:54 AM 21.0 °F 11.4 °F 12.9 °F 71% 30.24 in 10.0 mi South 8.1 mph - N/A   Overcast
8:54 AM 21.9 °F 12.5 °F 14.0 °F 72% 30.24 in 10.0 mi South 8.1 mph - N/A   Overcast
9:54 AM 24.1 °F 14.4 °F 14.0 °F 65% 30.24 in 10.0 mi South 9.2 mph - N/A   Mostly Cloudy
10:54 AM 26.1 °F 16.8 °F 15.1 °F 63% 30.22 in 10.0 mi South 9.2 mph - N/A   Overcast
11:54 AM 28.0 °F 20.0 °F 15.1 °F 58% 30.19 in 10.0 mi South 8.1 mph - N/A   Overcast
12:54 PM 28.9 °F 21.9 °F 17.1 °F 61% 30.16 in 10.0 mi SSE 6.9 mph - N/A   Partly Cloudy
1:54 PM 30.0 °F 23.2 °F 17.1 °F 59% 30.13 in 10.0 mi SSE 6.9 mph - N/A   Clear
2:54 PM 30.0 °F 22.4 °F 18.0 °F 61% 30.13 in 10.0 mi SSE 8.1 mph - N/A   Mostly Cloudy
3:05 PM 30.2 °F 20.8 °F 17.6 °F 60% 30.07 in 10.0 mi South 11.5 mph - N/A   Mostly Cloudy
3:54 PM 30.0 °F 21.7 °F 18.0 °F 61% 30.12 in 10.0 mi SSE 9.2 mph - N/A   Overcast
4:01 PM 28.4 °F 19.1 °F 19.4 °F 69% 30.06 in 10.0 mi South 10.4 mph - N/A   Overcast
4:29 PM 28.4 °F 19.7 °F 21.2 °F 74% 30.06 in 1.8 mi South 9.2 mph - 0.00 in Snow Light Snow
4:54 PM 27.0 °F 19.5 °F 24.1 °F 89% 30.12 in 1.8 mi SSE 6.9 mph - 0.00 in Snow Light Snow
4:57 PM 26.6 °F 19.1 °F 23.0 °F 86% 30.05 in 2.0 mi SSE 6.9 mph - 0.00 in Snow Light Snow
5:06 PM 26.6 °F 20.0 °F 24.8 °F 93% 30.05 in 2.0 mi SSE 5.8 mph - 0.00 in Snow Light Snow
5:17 PM 26.6 °F 21.2 °F 24.8 °F 93% 30.05 in 1.8 mi SE 4.6 mph - 0.00 in Snow Light Snow
5:30 PM 26.6 °F 21.2 °F 24.8 °F 93% 30.04 in 1.8 mi SE 4.6 mph - 0.00 in Snow Light Snow
5:54 PM 27.0 °F 21.6 °F 24.1 °F 89% 30.10 in 1.0 mi SE 4.6 mph - 0.00 in Snow Light Snow
6:22 PM 26.6 °F 19.1 °F 24.8 °F 93% 30.02 in 1.5 mi ESE 6.9 mph - 0.00 in Snow Light Snow
6:54 PM 27.0 °F 20.5 °F 25.0 °F 92% 30.06 in 1.5 mi SE 5.8 mph - 0.00 in Snow Light Snow
7:06 PM 26.6 °F 20.0 °F 24.8 °F 93% 29.99 in 1.8 mi ESE 5.8 mph - 0.00 in Snow Light Snow
7:33 PM 26.6 °F 21.2 °F 24.8 °F 93% 29.98 in 1.2 mi East 4.6 mph - 0.00 in Snow Light Snow
7:54 PM 28.0 °F 21.7 °F 25.0 °F 88% 30.02 in 1.5 mi ESE 5.8 mph - 0.00 in Snow Light Snow
8:36 PM 28.4 °F 22.2 °F 26.6 °F 93% 29.94 in 0.8 mi ESE 5.8 mph - 0.00 in Snow Light Snow
8:42 PM 28.4 °F 22.2 °F 26.6 °F 93% 29.94 in 1.0 mi ESE 5.8 mph - 0.00 in Snow Light Snow
8:54 PM 28.0 °F 24.2 °F 26.1 °F 92% 29.99 in 1.5 mi ESE 3.5 mph - 0.01 in Snow Light Snow
9:13 PM 28.4 °F 23.3 °F 26.6 °F 93% 29.93 in 1.2 mi ESE 4.6 mph - 0.00 in Snow Light Snow
9:54 PM 28.9 °F 22.8 °F 27.0 °F 92% 29.96 in 2.0 mi ESE 5.8 mph - 0.00 in Snow Light Snow
10:41 PM 30.2 °F 24.3 °F 28.4 °F 93% 29.90 in 1.8 mi ESE 5.8 mph - 0.00 in Snow Light Snow
10:54 PM 30.0 °F 24.1 °F 28.0 °F 92% 29.94 in 2.0 mi ESE 5.8 mph - 0.00 in Snow Light Snow
11:10 PM 30.2 °F 23.4 °F 28.4 °F 93% 29.88 in 3.0 mi ESE 6.9 mph - 0.00 in Snow Light Snow
11:35 PM 30.2 °F 23.4 °F 28.4 °F 93% 29.87 in 2.5 mi ESE 6.9 mph - 0.00 in Snow Light Snow
11:54 PM 30.0 °F 24.1 °F 28.0 °F 92% 29.92 in 2.5 mi ESE 5.8 mph - 0.01 in Snow Light Snow